TimeCST,TemperatureF,Dew PointF,Humidity,Sea Level PressureIn,VisibilityMPH,Wind Direction,Wind SpeedMPH,Gust SpeedMPH,PrecipitationIn,Events,Conditions,WindDirDegrees,DateUTC
12:53 AM,44.1,43.0,96,30.22,1.0,Calm,Calm,-,N/A,,Mist,0,2013-01-27 06:53:00
1:11 AM,44.6,42.8,93,30.21,0.8,ENE,3.5,-,N/A,,Mist,60,2013-01-27 07:11:00
1:39 AM,44.6,42.8,93,30.21,1.2,ESE,3.5,-,N/A,,Overcast,120,2013-01-27 07:39:00
1:53 AM,44.1,44.1,100,30.21,1.2,East,4.6,-,N/A,,Overcast,100,2013-01-27 07:53:00
2:18 AM,44.6,44.6,100,30.21,0.8,Calm,Calm,-,N/A,,Overcast,0,2013-01-27 08:18:00
2:39 AM,44.6,42.8,93,30.20,1.0,ESE,4.6,-,N/A,,Overcast,110,2013-01-27 08:39:00
2:53 AM,44.1,43.0,96,30.20,0.8,ESE,4.6,-,N/A,,Overcast,120,2013-01-27 08:53:00
3:43 AM,44.6,44.6,100,30.19,0.2,Calm,Calm,-,N/A,Fog,Fog,0,2013-01-27 09:43:00
3:53 AM,44.1,43.0,96,30.18,0.2,ESE,3.5,-,N/A,Fog,Fog,120,2013-01-27 09:53:00
4:53 AM,44.1,44.1,100,30.18,0.5,SE,4.6,-,N/A,Fog,Fog,130,2013-01-27 10:53:00
5:18 AM,44.6,44.6,100,30.17,0.2,Calm,Calm,-,N/A,Fog,Fog,0,2013-01-27 11:18:00
5:50 AM,44.6,42.8,93,30.17,0.5,SE,4.6,-,N/A,Fog,Fog,130,2013-01-27 11:50:00
5:53 AM,44.1,44.1,100,30.18,0.5,ESE,4.6,-,N/A,Fog,Fog,120,2013-01-27 11:53:00
6:53 AM,45.0,45.0,100,30.20,0.5,Calm,Calm,-,N/A,Fog,Fog,0,2013-01-27 12:53:00
7:08 AM,44.6,44.6,100,30.20,0.2,Calm,Calm,-,N/A,Fog,Fog,0,2013-01-27 13:08:00
7:53 AM,45.0,45.0,100,30.20,0.2,ESE,3.5,-,N/A,Fog,Fog,110,2013-01-27 13:53:00
8:53 AM,46.9,46.9,100,30.21,0.2,Calm,Calm,-,N/A,Fog,Fog,0,2013-01-27 14:53:00
9:46 AM,48.2,48.2,100,30.21,0.5,SE,4.6,-,N/A,Fog,Fog,140,2013-01-27 15:46:00
9:53 AM,50.0,50.0,100,30.21,0.8,SSE,5.8,-,N/A,,Overcast,150,2013-01-27 15:53:00
10:01 AM,50.0,50.0,100,30.22,2.0,SSE,5.8,-,N/A,,Overcast,160,2013-01-27 16:01:00
10:10 AM,51.8,50.0,94,30.21,4.0,SSE,3.5,-,N/A,,Overcast,150,2013-01-27 16:10:00
10:53 AM,54.0,53.1,97,30.21,10.0,Variable,5.8,-,N/A,,Mostly Cloudy,0,2013-01-27 16:53:00
11:01 AM,55.4,53.6,94,30.21,10.0,SSE,8.1,-,N/A,,Scattered Clouds,160,2013-01-27 17:01:00
11:53 AM,59.0,54.0,83,30.19,10.0,SE,5.8,-,N/A,,Partly Cloudy,130,2013-01-27 17:53:00
12:53 PM,63.0,55.0,75,30.14,10.0,SSE,5.8,-,N/A,,Clear,150,2013-01-27 18:53:00
1:53 PM,66.0,57.0,73,30.11,10.0,SE,6.9,-,N/A,,Clear,140,2013-01-27 19:53:00
2:53 PM,69.1,57.0,65,30.09,10.0,SE,9.2,-,N/A,,Mostly Cloudy,140,2013-01-27 20:53:00
3:53 PM,70.0,57.9,65,30.08,10.0,SE,5.8,-,N/A,,Mostly Cloudy,140,2013-01-27 21:53:00
4:53 PM,69.1,57.0,65,30.07,10.0,SSE,4.6,-,N/A,,Mostly Cloudy,150,2013-01-27 22:53:00
5:53 PM,66.0,57.9,75,30.07,10.0,SE,3.5,-,N/A,,Overcast,130,2013-01-27 23:53:00
6:53 PM,64.9,57.0,75,30.07,10.0,SE,5.8,-,N/A,,Clear,140,2013-01-28 00:53:00
7:53 PM,63.0,57.0,81,30.09,10.0,SE,4.6,-,N/A,,Clear,140,2013-01-28 01:53:00
8:53 PM,63.0,57.0,81,30.09,10.0,SSE,5.8,-,N/A,,Overcast,150,2013-01-28 02:53:00
9:53 PM,64.0,57.9,80,30.09,10.0,SSE,10.4,-,N/A,,Overcast,160,2013-01-28 03:53:00
10:53 PM,64.0,57.9,80,30.09,10.0,SSE,9.2,-,N/A,,Overcast,160,2013-01-28 04:53:00
11:53 PM,64.9,59.0,81,30.09,10.0,SSE,9.2,-,N/A,,Overcast,160,2013-01-28 05:53:00